Flag for Japan Weather past 2 weeks in Sendai, Japan

Now
68 °F

Passing clouds.


Feels Like: 68 °F
Forecast: 54 / 73 °F
Wind: 3 mph from Southwest

Location: Sendai Airport

Current Time: Sep 17, 2014 at 4:54:30 AM

Latest Report: Sep 16, 2014 at 9:00 PM


Visibility: N/A

Pressure: 29.92 "Hg

Humidity: 60%

Dew point: 54 °F

Location of SendaiLocation

Historic Weather in Sendai — Graph

°F

Sendai temperature yesterday

Maximum temperature yesterday: 81 °F (at 2:00 PM)
Minimum temperature yesterday: 63 °F (at 6:00 AM)
Average temperature yesterday: 72 °F

Past Weeks' High & Low Weather Summary

 TemperatureHumidityPressure
High81 °F (Sep 6, 12:00 PM)100% (Sep 6, 6:00 AM)30.04 "Hg (Sep 6, 6:00 AM)
Low57 °F (Sep 12, 6:00 AM)42% (Sep 12, 2:00 PM)29.68 "Hg (Sep 9, 12:00 PM)
Average71 °F80%29.86 "Hg
* Reported Sep 1 9:00 PM — Sep 16 9:00 PM, Sendai, Weather by CustomWeather, © 2014

Note: Actual official high and low records may vary slightly from our data, if they occured in-between our weather recording intervals... More about our weather records

Advertising

Sendai weather history for previous 24 hours

 ConditionsComfort  
Time TempWeatherWind HumidityBarometerVisibility
9:00 PM
Sep 16
68 °FPassing clouds.3 mph60%29.92 "HgN/A
8:00 PM70 °FPassing clouds.6 mph57%29.92 "HgN/A
7:00 PM70 °FPassing clouds.6 mph69%29.89 "HgN/A
6:00 PM72 °FPassing clouds.8 mph88%29.86 "HgN/A
5:00 PM73 °FScattered clouds.2 mph74%29.83 "HgN/A
4:00 PM77 °FScattered clouds.8 mph61%29.83 "HgN/A
3:00 PM77 °FScattered clouds.5 mph65%29.80 "HgN/A
2:00 PM81 °FScattered clouds.7 mph51%29.80 "HgN/A
1:00 PM75 °FScattered clouds.10 mph69%29.83 "HgN/A
12:00 PM72 °FBroken clouds.6 mph73%29.83 "HgN/A
11:00 AM72 °FSprinkles. Broken clouds.5 mph78%29.86 "HgN/A
10:00 AM75 °FPartly sunny.3 mph65%29.86 "HgN/A
9:00 AM72 °FPartly sunny.2 mph73%29.86 "HgN/A
8:00 AM70 °FScattered clouds.1 mph78%29.86 "HgN/A
7:00 AM66 °FScattered clouds.2 mph83%29.86 "HgN/A
6:00 AM63 °FBroken clouds.1 mph94%29.86 "HgN/A
Weather by CustomWeather, © 2014

See weather overviewHow to use our weather pages